STARLINK-3054, 49167

Orbit data source: Space-Track

STARLINK-3054, 49167 is a payload satellite owned by SpaceX/Seattle (US) in LEO that was launched on Tue, 14 Sep 2021 UTC via an FALCON 9 launch vehicle from the Air Force Western Test Range (AFWTR). Payload-class satellites include a variety of spacecraft equipped with specific instruments for various scientific and technological missions. These include communications satellites like Starlink; space stations such as the ISS; scientific satellites like the Hubble; Earth observation satellites from companies like Planet Labs, Umbra, and HawkEye 360; GPS; miniature CubeSats for education and research; and military/defense satellites.

Loading next visibility...
Identifier
49167, 2021-082AP
Orbit
LEO
Last TLE update
16 hours ago
Origin
Manufacturer
SpaceX/Seattle
Mission
Operational Commercial Communications
Bus & Motor
STARLINK, Unknown motor
Mass
297 kg wet, ~275 kg dry
Launch date (UTC)
2021-09-14 (4 years ago)
Launch vehicle
FALCON 9
Launch site
Air Force Western Test Range (AFWTR)
Object type
Payload
Rocket body
Debris
Shape & HBR
Box + 1 Pan, 8.86 m
Radar Cross Section
13.562 m², Large (>1 m²)

Expand to show TLE details & history

TLE from 16 hours ago
0 STARLINK-3054
1 49167U 21082AP  25128.70434749 -.00000004  00000-0  74168-5 0  9992
2 49167  69.9991 343.4261 0002829 270.8046  89.2789 14.98327161201494
Epoch: 2025-05-08T16:54Z
Definitive object data (Epoch: 2025-05-08T16:54:15.623Z)
Latitude
0.00001°
Longitude
-136.91002°
Altitude
574.464 km
Speed
7.574 km/s
True Right ascension
22h 53m 42s
True Declination
0° 00' 00"
Sunlit
Object was in daylight at TLE epoch
Visualization TLE readout
Latitude
51.61268°
Longitude
-111.42899°
Altitude
581.445 km
Speed
7.574 km/s
Apparent Right ascension
03h 07m 51s
Apparent Declination
10° 15' 47"
Sunlit
Object is in daylight
Visualization observer readout
Local Sidereal Time
17:19:55
Azimuth
38.831° NE
Elevation
-31.233°
Doppler factor
1
Orbital elements
Apogee altitude
571.979 km
Perigee altitude
568.047 km
Semi-major axis
6,948.15 km
Eccentricity
0.0002829
Inclination
69.9991°
RAAN
343.4261°
Arg. of periapsis
270.8046°
True anomaly
89.31132°
Mean anomaly
89.2789°
Eccentric anomaly
89.29511°
Mean motion
3.74748 °/min
BSTAR
0.0000074168
Orbital period
96.06 mins
Loading maneuver chart data...
Loading SW <> Apogee altitude chart data...
Loading historical data...
Loading historical data...
Loading historical data...
Loading historical data...
Loading historical data...
Loading historical data...
Loading historical data...

STARLINK-3054 Visibility forecast

Observer location: undefined°, undefined°

Span
Click to sort rows by Start time (UTC) header in descending order
Start Az.
Max El. time (UTC)
Max El. Az.
Max El.
End time (UTC)
End Az.
7 mins2025-05-09 15:27:38.172Z191.661° SSW2025-05-09 15:31:38.172Z87.122° E41.335°2025-05-09 15:34:38.172Z32.814° NE
6 mins2025-05-10 01:31:38.172Z319.011° NNW2025-05-10 01:33:38.172Z262.721° W40.148°2025-05-10 01:37:38.172Z170.88° S
|